Location: Gleizolles
(44.4833°N, 6.7667°E)
Time: 13:48:50
(UTC+00:00)

Vanguard 1 - Pass Details

Date: 29 June 2024
Orbit: 650 x 3826 km, 34.3° (Epoch: 15 July)

Event Time Altitude Azimuth Distance (km) Brightness Sun altitude
Rises 10:22:06 0° 247° (WSW) 6,154 14.1 63.8°
Reaches altitude 10° 10:27:08 10° 242° (WSW) 4,598 13.6 64.4°
Maximum altitude 10:37:20 39° 179° (S) 1,906 12.7 65.5°
Drops below altitude 10° 10:43:21 10° 111° (ESE) 2,713 12.8 66.1°
Sets 10:45:34 0° 103° (ESE) 3,436 13.1 66.3°
